User: anonymous   Login
Location: Iola
(37.9240°N, 95.4000°W)
Time: 09:50:22
(UTC-05:00)
Language:

Meteor 2-10 Rocket - Orbit

View from above orbital plane
View from above orbital plane
View from above satellite
View from above satellite

Ground track
Ground track

The orbit data is extracted from the following two-line orbital elements,

1 14453U 83109B   17115.71411163 +.00000072 +00000-0 +24057-4 0  9998
2 14453 081.1661 159.0960 0104406 214.9370 144.4929 14.24671956740057
Epoch (UTC): 25 April 2017 17:08:19
Eccentricity: 0.0104406
inclination: 81.1661°
perigee height: 734 km
apogee height: 884 km
right ascension of ascending node: 159.0960°
argument of perigee: 214.9370°
revolutions per day: 14.24671956
mean anomaly at epoch: 144.4929°
orbit number at epoch: 74005

The dashed part of the orbit path shows where the satellite is in the earth's shadow,  

DLR